sat.trackr.live / text

‹ back to catalog

TIME FLIES

NORAD 64564 · 2025-135AN

PAYLOAD ACTIVE UNKNOWN

§ Identity

Operator
Country
US
Launch date
2025-06-23
Launch site
AFWTR
Launch vehicle
Mass (kg)
RCS (m²)

External: N2YO · Heavens-Above · Gunter

§ Orbital elements

Epoch: 2026-09-21T19:46:10.043904Z

Period
96.29 min
Inclination
97.7786°
Eccentricity
0.0001262
Mean motion
14.95482148 rev/d
Perigee alt
580.0 km
Apogee alt
581.8 km
Semi-major
6,959.0 km
B*
2.0547e-4
RAAN
18.4603°
Arg perigee
1.1145°
Mean anomaly
359.0078°
Rev number
6,834

§ Raw data

TIME FLIES1 64564U 25135AN  26264.82372736  .00002216  00000+0  20547-3 0  99902 64564  97.7786  18.4603 0001262   1.1145 359.0078 14.95482148 68345

JSON: /api/v1/satellites/64564 · /tle

For live sub-satellite position, see the globe view (requires WebGL).

§ Visibility from observer

Set your observer location to see the next 7 days of passes ≥ 10°. The values pass through the URL so the page stays shareable.

No JS? Fill the form by hand. The geolocation button needs JavaScript.